Regional Weather Roundup
Issued by NWS

Home | Current Version | Previous Version | Text Only | Print | Product List | Glossary Off
Versions: 1 2 3 4 5 6 7 8 9 10 11 12 13 14 15 16 17 18 19 20 21 22 23 24 25 26 27 28 29 30 31 32 33 34 35 36 37 38 39 40 41 42 43 44 45 46 47 48 49 50

567
ASUS44 KLIX 311010
RWRLA
LOUISIANA WEATHER ROUNDUP
NATIONAL WEATHER SERVICE NEW ORLEANS LA
500 AM CDT THU JUL 31 2014

NOTE: "FAIR" INDICATES FEW OR NO CLOUDS BELOW 12,000 FEET WITH NO
      SIGNIFICANT WEATHER AND/OR OBSTRUCTIONS TO VISIBILITY.
      SKY/WX - SKY CONDITION AND SIGNIFICANT WEATHER.
      TMP - AIR TEMPERATURE.    DP   - DEWPOINT TEMPERATURE.
      RH  - RELATIVE HUMIDITY.  PRES - PRESSURE.
      HX  - HEAT INDEX.         WCI  - WIND CHILL INDEX.

*  THESE STATIONS ARE NOT NWS OR FAA STATIONS AND ARE NOT UNDER
   NWS QUALITY CONTROL.

LAZ040-048-061>063-065-066-069-311100-
SOUTHEAST LOUISIANA

CITY           SKY/WX    TMP DP  RH WIND       PRES   REMARKS
N.O. AUDUBON     N/A     76  66  70 MISG        N/A
N.O. INTL ARPT PTCLDY    72  64  76 CALM      29.99R
N.O. LAKEFRONT CLEAR     77  66  68 E3        30.00R
N.O. DOWNTOWN* FAIR      79  61  53 CALM      30.00R
SLIDELL        CLEAR     66  63  90 N5        29.99S
BATON ROUGE    MOCLDY    70  64  81 CALM      30.00R
BOOTHVILLE     CLEAR     75  66  73 CALM      29.99S
BELLE CHASSE   CLEAR     68  65  90 CALM      29.99R
BOGALUSA*      FAIR      69  64  84 CALM      30.02S
GALLIANO*      NOT AVBL
NEW ROADS*     FAIR      71  63  77 MISG      30.00R
GONZALES*      FAIR      68  67  96 CALM      29.98S
HAMMOND*       PTCLDY    70  61  73 CALM      30.01S
HOUMA*         PTCLDY    68  64  87 CALM      29.98S
PORT FOURCHON* CLOUDY    81  64  57 SE6       29.99F

$$

LAZ041-044-053-054-311100-
SOUTHWEST LOUISIANA

CITY           SKY/WX    TMP DP  RH WIND       PRES   REMARKS
LAKE CHARLES   MOCLDY    73  68  84 NE5       29.98S
LAFAYETTE      PTCLDY    71  67  87 NE3       29.99S
PATTERSON      CLEAR     70  66  88 NE3       30.02R
SALT POINT       N/A     75  70  84 CALM      29.97S
NEW IBERIA     CLEAR     71  66  84 CALM      29.99F
CHENAULT AIRPK NOT AVBL

$$

LAZ027-028-311100-
CENTRAL LOUISIANA

CITY           SKY/WX    TMP DP  RH WIND       PRES   REMARKS
FORT POLK      MOCLDY    73  63  70 SE5       30.00S
ALEXANDRIA INT MOCLDY    71  65  81 NE5       30.00R
ALEXANDRIA     MOCLDY    71  67  87 CALM      30.01R

$$

LAZ001-002-311100-
NORTHWEST LOUISIANA

CITY           SKY/WX    TMP DP  RH WIND       PRES   REMARKS
SHREVEPORT     LGT RAIN  72  65  78 SE8       30.01S
BARKSDALE AFB  CLOUDY    70  65  83 SE5       30.02S
DTN SHREVEPORT LGT RAIN  71  65  81 SE6       30.02S

$$

LAZ014-016-311100-
NORTHEAST LOUISIANA

CITY           SKY/WX    TMP DP  RH WIND       PRES   REMARKS
MONROE         CLOUDY    71  66  84 NE5       30.06R
TALLULAH       CLOUDY    71  65  81 N3        30.03R

$$




USA.gov is the U.S. government's official web portal to all federal, state and local government web resources and services.